Orbital Elements at Epoch 2459200.5 (2020-Dec-17.0) TDB
Reference: JPL 24 (heliocentric ecliptic J2000)
Element | Value | Uncertainty (1-sigma) | Units |
e | .03950526236273724 | 3.117e-08 | |
a | 1.931213183272493 | 5.9572e-09 | au |
q | 1.854920099788937 | 6.0741e-08 | au |
i | 24.62477315994946 | 4.7488e-06 | deg |
node | 204.1882471285078 | 8.4218e-06 | deg |
peri | 91.44485232999507 | 6.6583e-05 | deg |
M | 280.9618887305795 | 6.749e-05 | deg |
tp | 2459415.717610812198 (2021-Jul-20.21761081) | 0.0001842 | TDB |
period | 980.26557882042 2.68 | 4.5357e-06 1.242e-08 | d yr |
n | .3672474151680381 | 1.6993e-09 | deg/d |
Q | 2.00750626675605 | 6.1926e-09 | au |
|
| | Orbit Determination Parameters
Additional Information
|